| time (UTC) | temp F | wind direction | speed MPH | gust MPH | rain 1hr in | rain 24hr in | rain mn in | humidity % | barometer mb |
| 20260504192017 | 70 | 178 | 8.0 | 15.0 | 0.00 | 0.00 | 0.00 | 22 | 1004.2 |
| 20260504191527 | 70 | 119 | 7.0 | 16.0 | 0.00 | 0.00 | 0.00 | 22 | 1004.3 |
| 20260504191015 | 70 | 184 | 7.0 | 16.0 | 0.00 | 0.00 | 0.00 | 23 | 1004.3 |
| 20260504190515 | 70 | 137 | 5.0 | 17.0 | 0.00 | 0.00 | 0.00 | 23 | 1004.3 |
| 20260504190115 | 69 | 102 | 8.0 | 20.0 | 0.00 | 0.00 | 0.00 | 24 | 1004.3 |
| 20260504185514 | 69 | 131 | 9.0 | 20.0 | 0.00 | 0.00 | 0.00 | 25 | 1004.3 |
| 20260504185014 | 69 | 190 | 8.0 | 17.0 | 0.00 | 0.00 | 0.00 | 25 | 1004.4 |
| 20260504184515 | 69 | 101 | 5.0 | 16.0 | 0.00 | 0.00 | 0.00 | 25 | 1004.5 |
| 20260504184015 | 69 | 121 | 6.0 | 17.0 | 0.00 | 0.00 | 0.00 | 24 | 1004.4 |
| 20260504183514 | 68 | 140 | 6.0 | 17.0 | 0.00 | 0.00 | 0.00 | 24 | 1004.5 |
| 20260504183032 | 67 | 117 | 8.0 | 17.0 | 0.00 | 0.00 | 0.00 | 24 | 1004.5 |
| 20260504182514 | 68 | 143 | 8.0 | 15.0 | 0.00 | 0.00 | 0.00 | 24 | 1004.5 |
| 20260504182012 | 68 | 137 | 8.0 | 14.0 | 0.00 | 0.00 | 0.00 | 26 | 1004.6 |
| 20260504181522 | 68 | 142 | 7.0 | 13.0 | 0.00 | 0.00 | 0.00 | 26 | 1004.7 |
| 20260504181013 | 67 | 66 | 3.0 | 14.0 | 0.00 | 0.00 | 0.00 | 27 | 1004.7 |
| 20260504180516 | 68 | 155 | 5.0 | 13.0 | 0.00 | 0.00 | 0.00 | 27 | 1004.7 |
| 20260504180014 | 67 | 152 | 2.0 | 15.0 | 0.00 | 0.00 | 0.00 | 27 | 1004.6 |
| 20260504175513 | 67 | 177 | 6.0 | 15.0 | 0.00 | 0.00 | 0.00 | 27 | 1004.7 |
| 20260504175012 | 67 | 163 | 5.0 | 16.0 | 0.00 | 0.00 | 0.00 | 28 | 1004.7 |
| 20260504174515 | 67 | 78 | 6.0 | 16.0 | 0.00 | 0.00 | 0.00 | 29 | 1004.7 |
| 20260504174011 | 68 | 130 | 5.0 | 14.0 | 0.00 | 0.00 | 0.00 | 29 | 1004.6 |
| 20260504173512 | 68 | 191 | 4.0 | 14.0 | 0.00 | 0.00 | 0.00 | 31 | 1004.7 |
| 20260504173009 | 67 | 147 | 2.0 | 14.0 | 0.00 | 0.00 | 0.00 | 30 | 1004.6 |
| 20260504172511 | 66 | 157 | 5.0 | 14.0 | 0.00 | 0.00 | 0.00 | 33 | 1004.6 |
| 20260504172009 | 66 | 147 | 6.0 | 14.0 | 0.00 | 0.00 | 0.00 | 31 | 1004.5 |
| 20260504171509 | 66 | 139 | 4.0 | 9.0 | 0.00 | 0.00 | 0.00 | 32 | 1004.5 |
| 20260504171013 | 65 | 96 | 3.0 | 9.0 | 0.00 | 0.00 | 0.00 | 36 | 1004.3 |
| 20260504170513 | 65 | 90 | 1.0 | 6.0 | 0.00 | 0.00 | 0.00 | 37 | 1004.4 |
| 20260504151003 | 59 | 29 | 2.0 | 5.0 | 0.00 | 0.00 | 0.00 | 43 | 1004.1 |
| 20260504150504 | 59 | 59 | 0.0 | 5.0 | 0.00 | 0.00 | 0.00 | 44 | 1004.2 |
| 20260504141057 | 58 | 36 | 0.0 | 4.0 | 0.00 | 0.00 | 0.00 | 45 | 1003.6 |
| 20260504140556 | 58 | 36 | 0.0 | 4.0 | 0.00 | 0.00 | 0.00 | 45 | 1003.6 |
| 20260504130548 | 59 | 239 | 2.0 | 4.0 | 0.00 | 0.00 | 0.00 | 39 | 1002.8 |
| 20260504110532 | 62 | 200 | 1.0 | 7.0 | 0.00 | 0.00 | 0.00 | 36 | 1002.6 |
| 20260504100520 | 65 | 136 | 0.0 | 5.0 | 0.00 | 0.00 | 0.00 | 29 | 1002.5 |
| 20260504082005 | 69 | 214 | 1.0 | 5.0 | 0.00 | 0.00 | 0.00 | 24 | 1002.4 |
| 20260504081505 | 69 | 187 | 2.0 | 5.0 | 0.00 | 0.00 | 0.00 | 24 | 1002.5 |
| 20260504081002 | 69 | 208 | 1.0 | 4.0 | 0.00 | 0.00 | 0.00 | 24 | 1002.5 |
| 20260504080501 | 70 | 217 | 1.0 | 4.0 | 0.00 | 0.00 | 0.00 | 24 | 1002.5 |
| 20260504050546 | 73 | 277 | 4.0 | 11.0 | 0.00 | 0.00 | 0.00 | 17 | 1001.8 |
| 20260504045546 | 73 | 263 | 4.0 | 12.0 | 0.00 | 0.00 | 0.00 | 17 | 1001.8 |
| 20260504045046 | 73 | 219 | 3.0 | 12.0 | 0.00 | 0.00 | 0.00 | 17 | 1001.8 |
| 20260504044552 | 73 | 238 | 4.0 | 12.0 | 0.00 | 0.00 | 0.00 | 17 | 1001.8 |
| 20260504044045 | 73 | 246 | 3.0 | 11.0 | 0.00 | 0.00 | 0.00 | 17 | 1001.8 |
| 20260504043545 | 73 | 223 | 4.0 | 11.0 | 0.00 | 0.00 | 0.00 | 17 | 1001.8 |
| 20260504043045 | 74 | 244 | 3.0 | 11.0 | 0.00 | 0.00 | 0.00 | 17 | 1001.9 |
| 20260504042544 | 74 | 237 | 3.0 | 10.0 | 0.00 | 0.00 | 0.00 | 18 | 1001.8 |
| 20260504042045 | 74 | 222 | 3.0 | 11.0 | 0.00 | 0.00 | 0.00 | 18 | 1001.7 |
| 20260504041544 | 74 | 235 | 4.0 | 11.0 | 0.00 | 0.00 | 0.00 | 18 | 1001.7 |
| 20260504041044 | 74 | 229 | 3.0 | 9.0 | 0.00 | 0.00 | 0.00 | 18 | 1001.7 |
| 20260504040544 | 74 | 248 | 2.0 | 11.0 | 0.00 | 0.00 | 0.00 | 17 | 1001.6 |
| 20260504040100 | 74 | 265 | 3.0 | 11.0 | 0.00 | 0.00 | 0.00 | 17 | 1001.4 |
| 20260504035547 | 74 | 244 | 3.0 | 10.0 | 0.00 | 0.00 | 0.00 | 17 | 1001.5 |
| 20260504035044 | 74 | 221 | 4.0 | 10.0 | 0.00 | 0.00 | 0.00 | 17 | 1001.5 |
| 20260504034556 | 74 | 253 | 5.0 | 16.0 | 0.00 | 0.00 | 0.00 | 17 | 1001.4 |
| 20260504034144 | 75 | 215 | 3.0 | 16.0 | 0.00 | 0.00 | 0.00 | 17 | 1001.3 |
| 20260504033542 | 75 | 251 | 3.0 | 12.0 | 0.00 | 0.00 | 0.00 | 17 | 1001.2 |
| 20260504033107 | 75 | 259 | 6.0 | 12.0 | 0.00 | 0.00 | 0.00 | 17 | 1001.1 |
| 20260504032543 | 75 | 238 | 4.0 | 11.0 | 0.00 | 0.00 | 0.00 | 18 | 1000.9 |
| 20260504032041 | 75 | 252 | 5.0 | 11.0 | 0.00 | 0.00 | 0.00 | 18 | 1000.8 |
| 20260504031542 | 75 | 254 | 4.0 | 11.0 | 0.00 | 0.00 | 0.00 | 18 | 1000.8 |
| 20260504031041 | 75 | 238 | 5.0 | 13.0 | 0.00 | 0.00 | 0.00 | 18 | 1000.8 |
| 20260504030541 | 76 | 250 | 3.0 | 13.0 | 0.00 | 0.00 | 0.00 | 18 | 1000.7 |
| 20260504030046 | 76 | 244 | 4.0 | 12.0 | 0.00 | 0.00 | 0.00 | 18 | 1000.7 |
| 20260504025541 | 76 | 250 | 3.0 | 11.0 | 0.00 | 0.00 | 0.00 | 18 | 1000.7 |
| 20260504025141 | 77 | 239 | 2.0 | 11.0 | 0.00 | 0.00 | 0.00 | 18 | 1000.7 |
| 20260504024544 | 77 | 227 | 3.0 | 12.0 | 0.00 | 0.00 | 0.00 | 18 | 1000.7 |
| 20260504024040 | 77 | 233 | 4.0 | 11.0 | 0.00 | 0.00 | 0.00 | 17 | 1000.7 |
| 20260504023540 | 77 | 235 | 4.0 | 9.0 | 0.00 | 0.00 | 0.00 | 17 | 1000.5 |
| 20260504023056 | 77 | 193 | 3.0 | 9.0 | 0.00 | 0.00 | 0.00 | 16 | 1000.4 |
| 20260504022540 | 78 | 198 | 2.0 | 7.0 | 0.00 | 0.00 | 0.00 | 16 | 1000.3 |
| 20260504022038 | 78 | 194 | 2.0 | 7.0 | 0.00 | 0.00 | 0.00 | 16 | 1000.3 |
| 20260504021538 | 78 | 161 | 5.0 | 10.0 | 0.00 | 0.00 | 0.00 | 15 | 1000.3 |
| 20260504021038 | 78 | 173 | 3.0 | 13.0 | 0.00 | 0.00 | 0.00 | 15 | 1000.4 |
| 20260504020539 | 78 | 180 | 7.0 | 13.0 | 0.00 | 0.00 | 0.00 | 15 | 1000.5 |
| 20260504020039 | 78 | 188 | 6.0 | 16.0 | 0.00 | 0.00 | 0.00 | 15 | 1000.6 |
| 20260504015538 | 79 | 195 | 6.0 | 16.0 | 0.00 | 0.00 | 0.00 | 15 | 1000.6 |
| 20260504015039 | 79 | 181 | 6.0 | 15.0 | 0.00 | 0.00 | 0.00 | 14 | 1000.4 |
| 20260504014546 | 79 | 190 | 7.0 | 14.0 | 0.00 | 0.00 | 0.00 | 14 | 1000.3 |
| 20260504014037 | 79 | 189 | 5.0 | 15.0 | 0.00 | 0.00 | 0.00 | 15 | 1000.3 |
| 20260504013537 | 78 | 174 | 9.0 | 16.0 | 0.00 | 0.00 | 0.00 | 15 | 1000.5 |
| 20260504013045 | 78 | 177 | 2.0 | 8.0 | 0.00 | 0.00 | 0.00 | 16 | 1000.4 |
| 20260504012539 | 78 | 232 | 1.0 | 4.0 | 0.00 | 0.00 | 0.00 | 16 | 1000.3 |
| 20260504012037 | 78 | 254 | 1.0 | 8.0 | 0.00 | 0.00 | 0.00 | 16 | 1000.3 |
| 20260504011536 | 78 | 274 | 1.0 | 10.0 | 0.00 | 0.00 | 0.00 | 18 | 1000.5 |
| 20260504011035 | 79 | 270 | 3.0 | 12.0 | 0.00 | 0.00 | 0.00 | 20 | 1000.6 |
| 20260504010535 | 79 | 270 | 8.0 | 15.0 | 0.00 | 0.00 | 0.00 | 15 | 1001.0 |
| 20260504010038 | 80 | 241 | 6.0 | 16.0 | 0.00 | 0.00 | 0.00 | 13 | 1000.8 |
| 20260504005535 | 81 | 185 | 7.0 | 18.0 | 0.00 | 0.00 | 0.00 | 14 | 1000.7 |
| 20260504005033 | 81 | 213 | 7.0 | 18.0 | 0.00 | 0.00 | 0.00 | 13 | 1000.5 |
| 20260504004536 | 81 | 209 | 6.0 | 18.0 | 0.00 | 0.00 | 0.00 | 13 | 1000.6 |
| 20260504004033 | 80 | 184 | 9.0 | 17.0 | 0.00 | 0.00 | 0.00 | 13 | 1000.5 |
| 20260504003532 | 80 | 210 | 9.0 | 17.0 | 0.00 | 0.00 | 0.00 | 13 | 1000.6 |
| 20260504003035 | 80 | 201 | 6.0 | 14.0 | 0.00 | 0.00 | 0.00 | 13 | 1000.6 |
| 20260504002531 | 81 | 193 | 5.0 | 16.0 | 0.00 | 0.00 | 0.00 | 13 | 1000.6 |
| 20260504002032 | 81 | 172 | 4.0 | 14.0 | 0.00 | 0.00 | 0.00 | 13 | 1000.6 |
| 20260504001531 | 81 | 177 | 7.0 | 14.0 | 0.00 | 0.00 | 0.00 | 13 | 1000.6 |
| 20260504001031 | 81 | 175 | 4.0 | 9.0 | 0.00 | 0.00 | 0.00 | 14 | 1000.5 |
| 20260504000529 | 80 | 176 | 1.0 | 8.0 | 0.00 | 0.00 | 0.00 | 14 | 1000.6 |
| 20260504000029 | 80 | 213 | 3.0 | 8.0 | 0.00 | 0.00 | 0.00 | 14 | 1000.8 |
| 20260503235528 | 79 | 199 | 2.0 | 14.0 | 0.00 | 0.00 | 0.00 | 14 | 1000.9 |
| 20260503235128 | 79 | 179 | 3.0 | 16.0 | 0.00 | 0.00 | 0.00 | 14 | 1000.9 |
| 20260503234537 | 79 | 183 | 6.0 | 16.0 | 0.00 | 0.00 | 0.00 | 15 | 1001.2 |
| 20260503234025 | 78 | 259 | 3.0 | 11.0 | 0.00 | 0.00 | 0.00 | 16 | 1001.1 |
| 20260503233529 | 78 | 273 | 4.0 | 15.0 | 0.00 | 0.00 | 0.00 | 16 | 1001.1 |
| 20260503233026 | 79 | 289 | 4.0 | 15.0 | 0.00 | 0.00 | 0.00 | 16 | 1001.1 |
| 20260503232526 | 79 | 274 | 6.0 | 20.0 | 0.00 | 0.00 | 0.00 | 15 | 1001.1 |
| 20260503232025 | 80 | 199 | 8.0 | 20.0 | 0.00 | 0.00 | 0.00 | 14 | 1001.2 |
| 20260503231525 | 81 | 171 | 8.0 | 15.0 | 0.00 | 0.00 | 0.00 | 14 | 1001.1 |
| 20260503231025 | 81 | 205 | 5.0 | 15.0 | 0.00 | 0.00 | 0.00 | 13 | 1001.1 |
| 20260503230525 | 81 | 177 | 5.0 | 11.0 | 0.00 | 0.00 | 0.00 | 13 | 1001.2 |
| 20260503230024 | 81 | 225 | 1.0 | 9.0 | 0.00 | 0.00 | 0.00 | 13 | 1001.2 |
| 20260503225525 | 81 | 185 | 3.0 | 10.0 | 0.00 | 0.00 | 0.00 | 13 | 1001.3 |
| 20260503225023 | 81 | 236 | 3.0 | 14.0 | 0.00 | 0.00 | 0.00 | 13 | 1001.5 |
| 20260503224522 | 81 | 259 | 5.0 | 16.0 | 0.00 | 0.00 | 0.00 | 13 | 1001.3 |
| 20260503224022 | 81 | 207 | 4.0 | 17.0 | 0.00 | 0.00 | 0.00 | 13 | 1001.5 |
| 20260503223521 | 82 | 177 | 3.0 | 11.0 | 0.00 | 0.00 | 0.00 | 14 | 1001.6 |
| 20260503223023 | 82 | 195 | 4.0 | 11.0 | 0.00 | 0.00 | 0.00 | 14 | 1001.7 |
| 20260503222519 | 81 | 221 | 3.0 | 12.0 | 0.00 | 0.00 | 0.00 | 15 | 1001.8 |
| 20260503222019 | 81 | 231 | 4.0 | 12.0 | 0.00 | 0.00 | 0.00 | 15 | 1002.0 |
| 20260503221518 | 81 | 224 | 4.0 | 7.0 | 0.00 | 0.00 | 0.00 | 15 | 1002.1 |
| 20260503221017 | 80 | 220 | 3.0 | 10.0 | 0.00 | 0.00 | 0.00 | 16 | 1002.3 |
| 20260503220521 | 81 | 267 | 4.0 | 11.0 | 0.00 | 0.00 | 0.00 | 15 | 1002.1 |
| 20260503220016 | 81 | 238 | 6.0 | 14.0 | 0.00 | 0.00 | 0.00 | 14 | 1002.3 |
| 20260503215515 | 82 | 195 | 6.0 | 14.0 | 0.00 | 0.00 | 0.00 | 14 | 1002.3 |
| 20260503215014 | 81 | 194 | 4.0 | 15.0 | 0.00 | 0.00 | 0.00 | 14 | 1002.3 |
| 20260503214515 | 81 | 176 | 8.0 | 15.0 | 0.00 | 0.00 | 0.00 | 14 | 1002.5 |
| 20260503214016 | 81 | 173 | 3.0 | 8.0 | 0.00 | 0.00 | 0.00 | 14 | 1002.6 |
| 20260503213513 | 81 | 163 | 2.0 | 9.0 | 0.00 | 0.00 | 0.00 | 14 | 1002.6 |
| 20260503213012 | 81 | 136 | 4.0 | 16.0 | 0.00 | 0.00 | 0.00 | 14 | 1002.7 |
| 20260503212512 | 81 | 217 | 5.0 | 16.0 | 0.00 | 0.00 | 0.00 | 14 | 1002.9 |
| 20260503212011 | 81 | 93 | 4.0 | 11.0 | 0.00 | 0.00 | 0.00 | 13 | 1003.0 |
| 20260503211509 | 82 | 105 | 3.0 | 11.0 | 0.00 | 0.00 | 0.00 | 13 | 1003.0 |
| 20260503211010 | 81 | 73 | 3.0 | 11.0 | 0.00 | 0.00 | 0.00 | 13 | 1003.0 |
| 20260503210514 | 81 | 100 | 2.0 | 13.0 | 0.00 | 0.00 | 0.00 | 13 | 1003.2 |
| 20260503210008 | 82 | 136 | 6.0 | 13.0 | 0.00 | 0.00 | 0.00 | 13 | 1003.3 |
| 20260503205507 | 82 | 94 | 3.0 | 17.0 | 0.00 | 0.00 | 0.00 | 12 | 1003.3 |
| 20260503205005 | 82 | 13 | 6.0 | 17.0 | 0.00 | 0.00 | 0.00 | 12 | 1003.5 |
| 20260503204611 | 82 | 98 | 4.0 | 9.0 | 0.00 | 0.00 | 0.00 | 13 | 1003.5 |
| 20260503204004 | 82 | 63 | 4.0 | 9.0 | 0.00 | 0.00 | 0.00 | 12 | 1003.7 |
| 20260503203505 | 82 | 96 | 3.0 | 10.0 | 0.00 | 0.00 | 0.00 | 12 | 1003.8 |
| 20260503203001 | 82 | 114 | 4.0 | 10.0 | 0.00 | 0.00 | 0.00 | 12 | 1004.0 |
| 20260503202501 | 82 | 186 | 5.0 | 10.0 | 0.00 | 0.00 | 0.00 | 12 | 1004.2 |
| 20260503202100 | 82 | 182 | 5.0 | 10.0 | 0.00 | 0.00 | 0.00 | 12 | 1004.2 |
| 20260503201605 | 82 | 165 | 3.0 | 9.0 | 0.00 | 0.00 | 0.00 | 12 | 1004.4 |
| 20260503201057 | 82 | 173 | 5.0 | 9.0 | 0.00 | 0.00 | 0.00 | 12 | 1004.5 |
| 20260503200556 | 82 | 182 | 4.0 | 8.0 | 0.00 | 0.00 | 0.00 | 12 | 1004.7 |
| 20260503200100 | 81 | 177 | 3.0 | 12.0 | 0.00 | 0.00 | 0.00 | 12 | 1004.8 |
| 20260503195553 | 81 | 136 | 4.0 | 12.0 | 0.00 | 0.00 | 0.00 | 12 | 1004.9 |
| 20260503195052 | 81 | 197 | 1.0 | 3.0 | 0.00 | 0.00 | 0.00 | 12 | 1005.0 |
| 20260503194551 | 80 | 100 | 1.0 | 10.0 | 0.00 | 0.00 | 0.00 | 12 | 1005.1 |
| 20260503194050 | 80 | 95 | 5.0 | 9.0 | 0.00 | 0.00 | 0.00 | 12 | 1005.2 |
| 20260503193550 | 80 | 161 | 3.0 | 9.0 | 0.00 | 0.00 | 0.00 | 12 | 1005.4 |
| 20260503193054 | 81 | 92 | 4.0 | 11.0 | 0.00 | 0.00 | 0.00 | 12 | 1005.5 |
| 20260503192547 | 80 | 59 | 4.0 | 11.0 | 0.00 | 0.00 | 0.00 | 12 | 1005.6 |
| 20260503192047 | 80 | 96 | 5.0 | 10.0 | 0.00 | 0.00 | 0.00 | 12 | 1005.7 |